This demonstration page uses our WeatherBlox Daily Observations layout. Learn more.

Hourly Observations for June 24, 2018

Temp ( °F °C ) Dew Point ( °F °C ) Humidity (%) Winds ( mph kmh ) Pressure ( in mb ) Visibility ( mi km ) Precip ( " mm )
12:15 am 00:15 Clear with Nearby Thunderstorms 64 17.5 60 15.5 88 88 Calm 29.71 1006 10 16.09344 0 0
12:35 am 00:35 Clear 63 17.2 60 15.8 92 92 N 5 7 29.77 1008 10 16.09344 0 0
12:55 am 00:55 Clear 64 17.9 60 15.4 85 85 WNW 7 11 29.74 1007 10 16.09344 0 0
1:15 am 01:15 Partly Cloudy 65 18.2 60 15.6 85 85 NW 9 15 29.83 1010 10 16.09344 0 0
1:35 am 01:35 Mostly Cloudy with Nearby Thunderstorms 68 19.9 59 15.1 74 74 NW 15 24 29.8 1009 10 16.09344 0 0
1:55 am 01:55 Mostly Cloudy 67 19.2 58 14.6 75 75 NW 13 20 29.83 1010 10 16.09344 0 0
2:15 am 02:15 Cloudy 66 18.8 58 14.4 76 76 N 12 19 29.8 1009 10 16.09344 0 0
2:35 am 02:35 Partly Cloudy 65 18.1 58 14.5 80 80 NNE 12 19 29.77 1008 10 16.09344 0 0
2:55 am 02:55 Clear 65 18.3 58 14.6 79 79 NE 16 26 29.71 1006 10 16.09344 0 0
3:15 am 03:15 Clear 64 17.9 59 14.8 82 82 NNE 10 17 29.71 1006 10 16.09344 0 0
3:35 am 03:35 Clear 63 17.2 59 15.2 88 88 NE 8 13 29.74 1007 10 16.09344 0 0
3:55 am 03:55 Clear 63 17.1 60 15.5 90 90 ENE 8 13 29.74 1007 10 16.09344 0 0
4:15 am 04:15 Clear 63 17 60 15.5 91 91 E 7 11 29.74 1007 10 16.09344 0 0
4:35 am 04:35 Clear 62 16.9 60 15.6 92 92 E 7 11 29.74 1007 10 16.09344 0 0
4:55 am 04:55 Clear 62 16.8 60 15.6 93 93 ESE 5 7 29.74 1007 10 16.09344 0 0
5:15 am 05:15 Clear 63 17 60 15.5 91 91 Calm 29.74 1007 10 16.09344 0 0
5:35 am 05:35 Clear 63 17.1 60 15.7 92 92 SSE 5 7 29.77 1008 10 16.09344 0 0
5:55 am 05:55 Clear 63 17 60 15.8 93 93 WSW 3 6 29.77 1008 10 16.09344 0 0
6:15 am 06:15 Partly Cloudy 64 17.5 60 15.7 89 89 WNW 17 28 29.85 1011 10 16.09344 0 0
6:35 am 06:35 Cloudy with Light Rain 64 17.5 59 15.1 86 86 W 14 22 29.85 1011 10 16.09344 0 0
6:55 am 06:55 Partly Cloudy 64 17.8 59 15 84 84 W 17 28 29.85 1011 10 16.09344 0 0
7:15 am 07:15 Sunny 64 17.8 59 15.2 85 85 W 12 19 29.85 1011 10 16.09344 0 0
7:35 am 07:35 Sunny 64 17.7 60 15.5 87 87 WNW 3 6 29.83 1010 10 16.09344 0 0
7:55 am 07:55 Sunny 64 17.7 60 15.6 88 88 Calm 29.83 1010 10 16.09344 0 0
8:15 am 08:15 Sunny 64 17.5 61 16.2 92 92 ENE 3 6 29.77 1008 10 16.09344 0 0
8:35 am 08:35 Sunny 64 17.5 61 16.2 92 92 ENE 10 17 29.71 1006 10 16.09344 0 0
8:55 am 08:55 Sunny 64 17.9 61 16.2 90 90 NNE 6 9 29.74 1007 10 16.09344 0 0
9:15 am 09:15 Partly Cloudy 65 18.1 62 16.5 90 90 WNW 9 15 29.83 1010 10 16.09344 0 0
9:35 am 09:35 Partly Cloudy 67 19.2 62 16.6 85 85 W 3 6 29.8 1009 10 16.09344 0 0
9:55 am 09:55 Sunny 68 20.1 61 16.3 79 79 W 5 7 29.83 1010 10 16.09344 0 0
10:15 am 10:15 Sunny 69 20.8 62 16.5 77 77 NW 9 15 29.83 1010 10 16.09344 0 0
10:35 am 10:35 Sunny 69 20.6 61 16.1 76 76 NNW 5 7 29.8 1009 10 16.09344 0 0
10:55 am 10:55 Sunny 70 21.1 61 16.1 73 73 N 3 6 29.8 1009 10 16.09344 0 0
11:15 am 11:15 Sunny 72 22.2 62 16.8 72 72 NW 10 17 29.8 1009 10 16.09344 0 0
11:35 am 11:35 Sunny 73 22.8 62 16.5 68 68 NNW 7 11 29.8 1009 10 16.09344 0 0
11:55 am 11:55 Sunny 74 23.3 61 15.9 63 63 N 8 13 29.8 1009 10 16.09344 0 0
12:15 pm 12:15 Sunny 75 24 61 16.2 62 62 N 10 17 29.8 1009 10 16.09344 0 0
12:35 pm 12:35 Sunny 76 24.5 60 15.8 58 58 N 12 19 29.8 1009 10 16.09344 0 0
12:55 pm 12:55 Sunny 76 24.2 62 16.7 63 63 NW 7 11 29.83 1010 10 16.09344 0 0
1:15 pm 13:15 Sunny 75 24 60 15.8 60 60 N 8 13 29.83 1010 10 16.09344 0 0
1:35 pm 13:35 Sunny 76 24.2 60 15.3 58 58 NNW 8 13 29.83 1010 10 16.09344 0 0
1:55 pm 13:55 Sunny 75 23.9 60 15.6 60 60 N 7 11 29.8 1009 10 16.09344 0 0
2:15 pm 14:15 Sunny 75 24 60 15.6 59 59 N 7 11 29.8 1009 10 16.09344 0 0
2:35 pm 14:35 Sunny 75 24.1 61 15.9 60 60 NNE 7 11 29.8 1009 10 16.09344 0 0
2:55 pm 14:55 Sunny 76 24.7 60 15.5 57 57 NNW 6 9 29.8 1009 10 16.09344 0 0
3:15 pm 15:15 Sunny 76 24.7 61 16 59 59 N 8 13 29.77 1008 10 16.09344 0 0
3:35 pm 15:35 Sunny 77 24.9 62 16.6 60 60 NNW 5 7 29.77 1008 10 16.09344 0 0
3:55 pm 15:55 Sunny 77 25.1 60 15.7 56 56 NNE 3 6 29.8 1009 10 16.09344 0 0
4:15 pm 16:15 Sunny 78 25.8 61 16 55 55 NW 3 6 29.8 1009 10 16.09344 0 0
4:35 pm 16:35 Sunny 78 25.8 60 15.7 54 54 N 3 6 29.8 1009 10 16.09344 0 0
4:55 pm 16:55 Sunny 78 25.4 59 15.1 53 53 Calm 29.8 1009 10 16.09344 0 0
5:15 pm 17:15 Sunny 77 25.2 61 16.2 58 58 Calm 29.8 1009 10 16.09344 0 0
5:35 pm 17:35 Partly Cloudy 77 25.2 59 15.2 54 54 Calm 29.8 1009 10 16.09344 0 0
5:55 pm 17:55 Partly Cloudy with Light Rain 77 24.8 63 17.4 64 64 NW 8 13 29.8 1009 10 16.09344 0 0
6:15 pm 18:15 Sunny 77 25.2 63 17.3 62 62 Calm 29.77 1008 10 16.09344 0 0
6:35 pm 18:35 Sunny 77 25.2 61 15.9 56 56 N 3 6 29.8 1009 10 16.09344 0 0
6:55 pm 18:55 Partly Cloudy 77 24.9 61 15.9 57 57 WNW 5 7 29.8 1009 10 16.09344 0 0
7:15 pm 19:15 Partly Cloudy 74 23.6 66 18.7 74 74 NNE 5 7 29.8 1009 10 16.09344 0 0
7:35 pm 19:35 Mostly Cloudy 74 23.6 63 17.3 68 68 NNW 16 26 29.83 1010 10 16.09344 0 0
7:55 pm 19:55 Mostly Cloudy 70 21.1 60 15.3 70 70 NNW 10 17 29.85 1011 10 16.09344 0 0
8:15 pm 20:15 Partly Cloudy 69 20.5 59 15.1 71 71 NW 7 11 29.85 1011 10 16.09344 0 0
8:35 pm 20:35 Partly Cloudy 67 19.7 60 15.5 77 77 WNW 12 19 29.85 1011 10 16.09344 0 0
8:55 pm 20:55 Partly Cloudy with Nearby Thunderstorms 67 19.3 60 15.5 79 79 WNW 9 15 29.88 1012 10 16.09344 0 0
9:15 pm 21:15 Partly Cloudy 65 18.6 60 15.6 83 83 WNW 15 24 29.91 1013 10 16.09344 0 0
9:35 pm 21:35 Clear 65 18.6 61 16.1 85 85 NW 13 20 29.91 1013 10 16.09344 0 0
9:55 pm 21:55 Partly Cloudy with Light Rain 65 18.2 61 16.3 89 89 WNW 12 19 29.94 1014 10 16.09344 0 0
10:15 pm 22:15 Partly Cloudy with Light Rain 64 17.8 62 16.6 93 93 W 14 22 29.94 1014 10 16.09344 0 0
10:35 pm 22:35 Mostly Cloudy with Light Rain 63 17.2 61 16 93 93 WNW 17 28 29.94 1014 10 16.09344 0 0
10:55 pm 22:55 Mostly Cloudy with Light Rain 62 16.4 60 15.5 94 94 W 14 22 29.97 1015 10 16.09344 0 0
11:15 pm 23:15 Partly Cloudy with Light Drizzle 61 16.2 60 15.5 96 96 W 12 19 30 1016 10 16.09344 0 0
11:35 pm 23:35 Partly Cloudy with Light Rain 61 16 60 15.3 96 96 W 7 11 29.94 1014 10 16.09344 0 0
11:55 pm 23:55 Mostly Cloudy with Light Rain 60 15.8 60 15.3 97 97 WNW 5 7 29.91 1013 10 16.09344 0 0

Powered by AerisWeather